GSAT0217 (GALILEO 21) (43057 NORAD) Tracking and Keplerian Element Data

This shows tracking and keplerian element data for the satellite.

Feedback or suggestion? Click here.




ElementValue
Catalog43057
NameGSAT0217 (GALILEO 21)
Epoch Orbit2344
Epoch Day261.17426638
Epoch Year2021
RAAN269.2179
Inclination55.929
Eccentricity0.0005599
Argument of Perigee282.1705
Mean Anonmoly77.7931
Mean Motion1.70474114
Decay Rate1.7E-07
L11 43057U 17079C 21261.17426638 .00000017 00000-0 00000-0 0 9990
L22 43057 55.9290 269.2179 0005599 282.1705 77.7931 1.70474114 23446

Live tracking and technical data element details for GSAT0217 (GALILEO 21) (NORAD 43057). GSAT0217 (GALILEO 21) can be tracked NOW for your location showing map with azimuth and elevation plus other details from your city location.

Track the satellite on the map from your city or location and see movement details for azimuth, elevation, latitude, longitude, range, height, and movement on the map or in text.







IsCatalogInMostPopularTable: catalog: 43057, numindb: 617
Update: records affected: 1



GetName: 43057 GSAT0217 (GALILEO 21)

Hit Count: updated at: Sat, 25 Sep 2021 23:31:15 GMT